• MPC Preparation (Info)

  • MPEC 2022-P113 : 2022 PY1

    The following Minor Planet Electronic Circular may be linked-to from your own Web pages, but must not otherwise be redistributed electronically.

    A form allowing access to any MPEC is at the bottom of this page.


    Read MPEC 2022-P112 Read MPEC 2022-P114


    M.P.E.C. 2022-P113                              Issued 2022 August 12, 16:24 UT
    
         The Minor Planet Electronic Circulars contain information on unusual
             minor planets and routine data on comets.  They are published
        on behalf of Division F of the International Astronomical Union by the
              Minor Planet Center, Smithsonian Astrophysical Observatory,
                              Cambridge, MA 02138, U.S.A.
    
                 Prepared using the Tamkin Foundation Computer Network
    
                                  MPC@CFA.HARVARD.EDU
                URL https://www.minorplanetcenter.net/    ISSN 1523-6714
    
                                    2022 PY1                                 
    
    
    Observations:
         K22P01Y* C2022 08 06.41276421 57 15.347-26 40 33.11         21.16wUEP113F52
         K22P01Y  C2022 08 06.42357821 57 13.958-26 40 41.19         21.49GVEP113F52
         K22P01Y  C2022 08 06.43440721 57 12.573-26 40 48.86         21.91wUEP113F52
         K22P01Y  C2022 08 08.48726621 52 50.592-27 05 47.44         21.41GVEP113F52
         K22P01Y  C2022 08 08.48789621 52 50.512-27 05 47.89         21.59GVEP113F52
         K22P01Y |C2022 08 09.28300 21 50 57.61 -27 15 28.2          21.7 GVEP113807
         K22P01Y |C2022 08 09.28742 21 50 56.91 -27 15 31.2          21.7 GVEP113807
         K22P01Y |C2022 08 09.29183 21 50 56.20 -27 15 34.5          21.5 GVEP113807
         K22P01Y KC2022 08 09.50126021 50 25.676-27 18 37.74         21.48GVEP113F52
    
    Observer details:
    807 Cerro Tololo Observatory, La Serena.  Observers T. Linder, R. Holmes, L.
        Horn.  1.00-m f/10.0 astrograph + CCD.
    F52 Pan-STARRS 2, Haleakala.  Observers J. Bulger, T. Lowe, A. Schultz, I.
        Smith, K. Chambers, T. Dukes.  Measurers K. Chambers, S. Chastel, T. de
        Boer, J. Fairlamb, H. Gao, M. Huber, C.-C. Lin, E. Magnier, Y.
        Ramanjooloo, R. Wainscoat, R. Weryk.  1.8-m Ritchey-Chretien + CCD.
    
    Orbital elements:
    2022 PY1                                                 Earth MOID = 0.0016 AU
    Epoch 2022 Aug. 9.0 TT = JDT 2459800.5                  Veres                   
    M 322.03000              (2000.0)            P               Q                  
    n   0.46127837     Peri.   86.81746     +0.38405599     -0.92209790             
    a   1.6589272      Node   340.38976     +0.78126479     +0.35184153             
    e   0.6060544      Incl.    8.10035     +0.49206333     +0.16106833             
    P   2.14           H   22.91          G   0.15           U   9                  
    Residuals in seconds of arc
    220806 F52  0.0   0.0     220808 F52  0.1-  0.0     220809 807  0.0   0.1+
    220806 F52  0.0   0.2-    220808 F52  0.1+  0.0     220809 807  0.2-  0.1+
    220806 F52  0.0   0.1+    220809 807  0.2+  0.2-    220809 F52  0.0   0.0
    
    Ephemeris:
    2022 PY1                 a,e,i = 1.66, 0.61, 8                   q = 0.6535
    Date    TT    R. A. (2000) Decl.     Delta      r    Elong.  Phase     V
    2022 07 13    22 14 57.0 -23 30 44   0.6427  1.5716   141.6    23.7    24.0
    ...
    2022 07 28    22 10 04.8 -25 04 23   0.4521  1.4395   155.6    16.9    22.9
    ...
    2022 08 05    21 59 51.9 -26 23 55   0.3625  1.3654   163.1    12.5    22.1
    ...
    2022 08 11    21 46 31.5 -27 37 50   0.3012  1.3084   166.5    10.4    21.6
    2022 08 12    21 43 39.7 -27 51 14   0.2915  1.2987   166.6    10.4    21.5
    2022 08 13    21 40 34.8 -28 04 55   0.2819  1.2891   166.5    10.6    21.4
    ...
    2022 08 19    21 16 25.7 -29 30 27   0.2278  1.2304   161.5    15.1    21.0
    ...
    2022 08 27    20 21 16.7 -31 03 26   0.1657  1.1505   145.3    30.0    20.6
    ...
    2022 09 11    16 36 02.7 -19 44 11   0.1035  0.9983    82.3    91.8    21.2
    
    M. P. C. Staff               (C) Copyright 2022 MPC           M.P.E.C. 2022-P113
    


    Read MPEC 2022-P112 Read MPEC 2022-P114


    MPEC number:

    Enter an MPEC number in one of the following forms:

    • 1997-B01 (the full form)
    • J97B01 (the packed version of the full form)
    • B01 (the abbreviated form)